PVL7669 CYHZ-KBOS

Flight info

Callsign PVL7669
Flight time N/A
Altitude 24000
Route SENVI DCT VIGMA DCT ALLEX Q822 ENE DCT PEASE DCT STEVO DCT LWRNC
Aircraft DH8D/M-SDE2E3FGRY/H

Departure

Time 2026-04-28 00:20
Airport Halifax / Stanfield International Airport (CYHZ)

Arrival

Time N/A
Airport Boston Logan International Airport (KBOS)
Time Latitude Longitude Altitude Speed Heading
2026-04-27 23:49 44.88386 -63.51456 453 ft 0 kts 305°
2026-04-28 00:11 44.88383 -63.51451 449 ft 2 kts 304°
2026-04-28 00:11 44.88362 -63.51408 450 ft 7 kts 308°
2026-04-28 00:11 44.88319 -63.51341 453 ft 9 kts 342°
2026-04-28 00:11 44.88303 -63.51343 453 ft 0 kts 40°
2026-04-28 00:15 44.88313 -63.51332 453 ft 9 kts 37°
2026-04-28 00:15 44.88402 -63.51231 455 ft 15 kts 38°
2026-04-28 00:16 44.88573 -63.51232 453 ft 28 kts 347°
2026-04-28 00:16 44.88699 -63.51263 452 ft 2 kts 350°
2026-04-28 00:16 44.88717 -63.51268 452 ft 0 kts 350°
2026-04-28 00:16 44.88719 -63.51268 452 ft 0 kts 350°
2026-04-28 00:17 44.88720 -63.51268 452 ft 0 kts 350°
2026-04-28 00:18 44.88723 -63.51270 452 ft 5 kts 350°
2026-04-28 00:18 44.88808 -63.51291 451 ft 23 kts 350°
2026-04-28 00:18 44.88924 -63.51320 450 ft 13 kts 350°
2026-04-28 00:19 44.88982 -63.51316 450 ft 12 kts 32°
2026-04-28 00:19 44.89025 -63.51271 450 ft 0 kts 37°
2026-04-28 00:19 44.89079 -63.51208 448 ft 22 kts 59°
2026-04-28 00:19 44.88945 -63.50886 450 ft 76 kts 125°
2026-04-28 00:20 44.88451 -63.49920 629 ft 148 kts 129°
2026-04-28 00:20 44.87751 -63.48682 1397 ft 177 kts 130°
2026-04-28 00:20 44.86931 -63.47249 2270 ft 201 kts 127°
2026-04-28 00:20 44.86044 -63.45665 3183 ft 218 kts 127°
2026-04-28 00:21 44.85057 -63.43968 4193 ft 231 kts 127°
2026-04-28 00:21 44.84019 -63.42192 4689 ft 234 kts 127°
2026-04-28 00:21 44.83000 -63.40434 4867 ft 230 kts 127°
2026-04-28 00:21 44.81981 -63.38685 4929 ft 231 kts 127°
2026-04-28 00:22 44.80805 -63.37149 4971 ft 234 kts 148°
2026-04-28 00:22 44.79198 -63.36624 5073 ft 251 kts 182°
2026-04-28 00:22 44.77606 -63.37475 6057 ft 249 kts 216°
2026-04-28 00:22 44.76383 -63.39154 6951 ft 249 kts 234°
2026-04-28 00:23 44.75814 -63.41402 7759 ft 248 kts 261°
2026-04-28 00:23 44.75460 -63.43767 8566 ft 248 kts 256°
2026-04-28 00:23 44.75030 -63.46109 9207 ft 251 kts 257°
2026-04-28 00:23 44.74616 -63.48504 9879 ft 254 kts 257°
2026-04-28 00:24 44.74216 -63.50901 10524 ft 257 kts 258°
2026-04-28 00:24 44.73814 -63.53382 11036 ft 266 kts 258°
2026-04-28 00:24 44.73400 -63.56016 11168 ft 286 kts 258°
2026-04-28 00:24 44.72981 -63.58712 11956 ft 280 kts 258°
2026-04-28 00:25 44.72571 -63.61373 12604 ft 280 kts 258°
2026-04-28 00:25 44.72161 -63.64057 13195 ft 282 kts 258°
2026-04-28 00:25 44.71752 -63.66753 13765 ft 284 kts 258°
2026-04-28 00:25 44.71335 -63.69501 14321 ft 287 kts 258°
2026-04-28 00:26 44.70928 -63.72194 15133 ft 279 kts 258°
2026-04-28 00:26 44.70533 -63.74802 15947 ft 272 kts 258°
2026-04-28 00:26 44.70143 -63.77380 16583 ft 271 kts 258°
2026-04-28 00:26 44.69752 -63.79969 17228 ft 270 kts 257°
2026-04-28 00:27 44.69366 -63.82523 17849 ft 270 kts 257°
2026-04-28 00:27 44.68985 -63.85046 18449 ft 265 kts 257°
2026-04-28 00:27 44.68601 -63.87574 19019 ft 261 kts 257°
2026-04-28 00:27 44.68232 -63.90007 19541 ft 257 kts 257°
2026-04-28 00:28 44.67862 -63.92445 20035 ft 254 kts 257°
2026-04-28 00:28 44.67493 -63.94873 20505 ft 251 kts 257°
2026-04-28 00:28 44.67131 -63.97250 20956 ft 249 kts 256°
2026-04-28 00:28 44.66775 -63.99616 21342 ft 247 kts 258°
2026-04-28 00:29 44.66546 -64.01998 21709 ft 246 kts 262°
2026-04-28 00:29 44.66382 -64.04378 22069 ft 244 kts 263°
2026-04-28 00:29 44.66222 -64.06725 22402 ft 243 kts 263°
2026-04-28 00:29 44.66060 -64.09074 22721 ft 242 kts 263°
2026-04-28 00:30 44.65895 -64.11443 23025 ft 241 kts 263°
2026-04-28 00:30 44.65732 -64.13754 23236 ft 243 kts 263°
2026-04-28 00:30 44.65563 -64.16142 23430 ft 245 kts 263°
2026-04-28 00:30 44.65392 -64.18543 23643 ft 247 kts 262°
2026-04-28 00:31 44.65221 -64.20944 23856 ft 248 kts 262°
2026-04-28 00:31 44.65048 -64.23354 24064 ft 248 kts 262°
2026-04-28 00:31 44.64874 -64.25768 24241 ft 251 kts 262°
2026-04-28 00:31 44.64696 -64.28213 24294 ft 258 kts 262°
2026-04-28 00:32 44.64508 -64.30799 24311 ft 268 kts 262°
2026-04-28 00:32 44.64317 -64.33409 24313 ft 276 kts 263°
2026-04-28 00:32 44.64117 -64.36137 24314 ft 285 kts 263°
2026-04-28 00:32 44.63909 -64.38957 24317 ft 293 kts 263°
2026-04-28 00:33 44.63696 -64.41858 24315 ft 301 kts 263°
2026-04-28 00:33 44.63479 -64.44807 24311 ft 307 kts 263°
2026-04-28 00:33 44.63258 -64.47789 24308 ft 312 kts 263°
2026-04-28 00:33 44.63030 -64.50854 24309 ft 317 kts 263°
2026-04-28 00:34 44.62800 -64.53940 24310 ft 320 kts 263°
2026-04-28 00:34 44.62565 -64.57076 24310 ft 324 kts 263°
2026-04-28 00:34 44.62332 -64.60184 24312 ft 326 kts 263°
2026-04-28 00:34 44.62091 -64.63371 24311 ft 327 kts 263°
2026-04-28 00:35 44.61853 -64.66522 24311 ft 325 kts 262°
2026-04-28 00:35 44.61615 -64.69641 24310 ft 323 kts 262°
2026-04-28 00:35 44.61376 -64.72761 24305 ft 322 kts 262°
2026-04-28 00:35 44.61135 -64.75909 24308 ft 321 kts 262°
2026-04-28 00:36 44.60896 -64.79009 24309 ft 321 kts 263°
2026-04-28 00:36 44.60658 -64.82098 24309 ft 320 kts 263°
2026-04-28 00:36 44.60419 -64.85188 24310 ft 320 kts 263°
2026-04-28 00:36 44.60179 -64.88275 24303 ft 319 kts 263°
2026-04-28 00:37 44.59937 -64.91376 24302 ft 319 kts 263°
2026-04-28 00:37 44.59696 -64.94453 24303 ft 319 kts 262°
2026-04-28 00:37 44.59455 -64.97525 24298 ft 319 kts 262°
2026-04-28 00:37 44.59213 -65.00595 24300 ft 318 kts 262°
2026-04-28 00:38 44.58968 -65.03704 24303 ft 318 kts 263°
2026-04-28 00:38 44.58724 -65.06772 24297 ft 318 kts 263°
2026-04-28 00:38 44.58478 -65.09857 24293 ft 318 kts 263°
2026-04-28 00:38 44.58232 -65.12934 24296 ft 318 kts 263°
2026-04-28 00:39 44.57988 -65.15990 24298 ft 318 kts 263°
2026-04-28 00:39 44.57742 -65.19047 24297 ft 318 kts 263°
2026-04-28 00:39 44.57491 -65.22156 24295 ft 318 kts 263°
2026-04-28 00:39 44.57242 -65.25232 24294 ft 319 kts 263°
2026-04-28 00:40 44.56991 -65.28313 24295 ft 319 kts 263°
2026-04-28 00:40 44.56741 -65.31393 24292 ft 319 kts 263°
2026-04-28 00:40 44.56491 -65.34442 24291 ft 319 kts 263°
2026-04-28 00:40 44.56237 -65.37543 24292 ft 319 kts 263°
2026-04-28 00:41 44.55982 -65.40639 24291 ft 319 kts 263°
2026-04-28 00:41 44.55731 -65.43675 24292 ft 319 kts 263°
2026-04-28 00:41 44.55475 -65.46765 24293 ft 319 kts 263°
2026-04-28 00:41 44.55218 -65.49852 24287 ft 319 kts 263°
2026-04-28 00:42 44.54958 -65.52967 24290 ft 319 kts 263°
2026-04-28 00:42 44.54704 -65.56004 24296 ft 318 kts 263°
2026-04-28 00:42 44.54445 -65.59090 24300 ft 318 kts 263°
2026-04-28 00:42 44.54184 -65.62176 24298 ft 319 kts 264°
2026-04-28 00:43 44.53925 -65.65246 24296 ft 319 kts 263°
2026-04-28 00:43 44.53664 -65.68321 24293 ft 319 kts 263°
2026-04-28 00:43 44.53400 -65.71424 24289 ft 320 kts 263°
2026-04-28 00:43 44.53139 -65.74486 24297 ft 319 kts 263°
2026-04-28 00:44 44.52875 -65.77573 24299 ft 320 kts 263°
2026-04-28 00:44 44.52609 -65.80664 24300 ft 320 kts 263°
2026-04-28 00:44 44.52343 -65.83748 24302 ft 320 kts 263°
2026-04-28 00:44 44.52076 -65.86840 24307 ft 320 kts 263°
2026-04-28 00:45 44.51808 -65.89917 24301 ft 320 kts 263°
2026-04-28 00:45 44.51539 -65.93022 24306 ft 319 kts 263°
2026-04-28 00:45 44.51272 -65.96078 24304 ft 319 kts 263°
2026-04-28 00:45 44.51000 -65.99182 24308 ft 319 kts 263°
2026-04-28 00:46 44.50729 -66.02265 24313 ft 320 kts 263°
2026-04-28 00:46 44.50459 -66.05331 24307 ft 320 kts 263°
2026-04-28 00:46 44.50185 -66.08428 24312 ft 320 kts 263°
2026-04-28 00:46 44.49910 -66.11523 24312 ft 321 kts 264°
2026-04-28 00:47 44.49639 -66.14577 24308 ft 321 kts 263°
2026-04-28 00:47 44.49360 -66.17701 24314 ft 321 kts 264°
2026-04-28 00:47 44.49086 -66.20764 24314 ft 321 kts 264°
2026-04-28 00:47 44.48805 -66.23885 24311 ft 321 kts 264°
2026-04-28 00:48 44.48527 -66.26973 24310 ft 322 kts 264°
2026-04-28 00:48 44.48245 -66.30095 24313 ft 322 kts 264°
2026-04-28 00:48 44.47968 -66.33157 24310 ft 322 kts 264°
2026-04-28 00:48 44.47778 -66.35240 24313 ft 322 kts 264°